Meteo Giornale » Osservazioni meteo Italia » Venezia-Tessera

ore: 15:50 - Osservazioni Meteo Venezia-Tessera
Lat. 45° 30' N Lon. 12° 20' E Alt. 2 metri s.l.m.

sereno Europe/Rome

28 °C

Sereno

Temp. 24 Ore

19 °C

28 °C

Sud-Est

11.1 Km/h

Dew point 18 °C

Umidità 54 %

Visibilità  10 Km

Il sole sorge alle ore 06:55

Il sole tramonta alle ore 19:11

Data e Ora Cielo e Fenomeni T °C DP °C Um. % Pres. hPa Vis. km Vento km/h
Oggi h: 15:50 sereno Sereno 28 18 54 1014 10 SE 11.1
Oggi h: 15:20 sereno Sereno 28 18 54 1014 10 SE 13
Oggi h: 14:50 sereno Sereno 28 17 51 1014 10 S/SE 11.1
Oggi h: 14:20 sereno Sereno 28 17 51 1015 10 S/SE 11.1
Oggi h: 13:50 sereno Sereno 27 18 57 1015 10 S 9.3
Oggi h: 13:20 sereno Sereno 27 17 54 1015 10 S/SE 9.3
Oggi h: 12:50 sereno Sereno 27 16 50 1015 10 S/SE 7.4
Oggi h: 12:20 sereno Sereno 26 17 57 1015 10 SE 9.3
Oggi h: 11:50 sereno Sereno 26 17 57 1015 10 SE 9.3
Oggi h: 11:20 sereno Sereno 26 16 54 1016 10 E/NE 7.4
Oggi h: 10:50 sereno Sereno 25 16 57 1016 10 N 5.5
Oggi h: 10:20 sereno Sereno 25 16 57 1016 10 N 9.3
Oggi h: 09:50 sereno Sereno 24 16 60 1016 10 N 11.1
Oggi h: 09:20 sereno Sereno 22 16 68 1016 10 N/NO 11.1
Oggi h: 08:50 sereno Sereno 21 16 73 1016 10 N 11.1
Oggi h: 08:20 sereno Sereno 20 16 77 1016 10 N 9.3
Oggi h: 07:50 sereno Sereno 20 16 77 1016 10 N/NE 7.4
Oggi h: 07:20 sereno Sereno 19 16 82 1016 10 N/NO 7.4
Oggi h: 06:50 sereno Sereno 19 15 77 1015 10 N/NO 7.4
Oggi h: 06:20 sereno Sereno 19 16 82 1015 10 O/NO 7.4
Oggi h: 05:50 sereno Sereno 19 16 82 1016 10 N 7.4
Oggi h: 05:20 sereno Sereno 19 16 82 1016 10 N 7.4
Oggi h: 04:20 sereno Sereno 20 16 77 1016 10 N/NE 7.4
Oggi h: 03:50 sereno Sereno 19 16 82 1016 10 N/NE 11.1
Oggi h: 03:20 sereno Sereno 20 16 77 1016 10 N 9.3
Oggi h: 02:50 sereno Sereno 20 17 82 1016 10 N 11.1
Oggi h: 02:20 sereno Sereno 20 17 82 1016 10 N 11.1
Oggi h: 01:50 sereno Sereno 21 17 77 1017 10 N/NO 9.3
Oggi h: 01:20 sereno Sereno 22 17 73 1017 10 N 3.7
Oggi h: 00:50 sereno Sereno 22 16 68 1017 10 N 5.5
Oggi h: 00:20 sereno Sereno 21 17 77 1017 10 N/NE 7.4
Ieri h: 23:50 sereno Sereno 23 16 64 1017 10 N 5.5
Ieri h: 23:20 sereno Sereno 23 17 68 1017 10 NO 7.4
Ieri h: 22:20 sereno Sereno 24 19 73 1017 10 N 1.8
Ieri h: 21:50 sereno Sereno 23 18 73 1017 10 N 1.8
Ieri h: 21:20 sereno Sereno 23 18 73 1017 10 N 1.8
Ieri h: 20:50 sereno Sereno 24 18 69 1017 10 N 1.8
Ieri h: 20:20 sereno Sereno 24 18 69 1017 10 N 5.5
Ieri h: 19:50 sereno Sereno 24 18 69 1017 10 N 5.5
Ieri h: 19:20 sereno Sereno 25 18 65 1017 10 N 5.5
Ieri h: 18:50 sereno Sereno 26 17 57 1017 10 O/SO 7.4
Ieri h: 18:20 sereno Sereno 27 17 54 1017 10 N 5.5
Ieri h: 17:50 sereno Sereno 27 16 50 1017 10 S 7.4
Ieri h: 17:20 sereno Sereno 28 16 48 1017 10 S/SE 7.4
Ieri h: 16:50 sereno Sereno 28 15 45 1017 10 S 9.3